Temperature
18 19 18 18 18 18 18 18 18 18 18 18 18 18 18 18 18 18 18 18 18 18 18 18 18 18 18 18 18 18 18 18 18 18 18 18 18 18 18 18 18 18 18
19 19 19 18 18 18 18 18 18 18 18 18 18 18 18 18 18 18 18 18 18 18 18 18 18 18 18 18 18 18 18 18 18 18 18 18 18 18 18 17 17 18 18
19 18 19 18 18 18 18 18 18 18 18 18 18 18 18 18 18 18 18 18 18 18 18 18 18 18 18 18 18 18 18 18 18 18 18 18 18 18 18 17 17 18 18
19 18 19 18 18 18 18 18 18 18 18 18 18 18 18 18 18 18 18 18 18 18 18 18 18 18 18 18 18 18 18 18 18 18 17 17 18 18 18 18 18 18 18
19 19 19 19 18 18 18 18 18 18 18 18 18 18 18 18 18 18 18 18 18 18 18 18 18 18 18 18 18 18 18 18 18 18 17 18 18 18 18 18 18 17 17
19 19 19 19 19 18 18 18 18 18 18 18 18 18 18 18 18 18 18 18 18 18 18 18 18 18 18 18 18 18 18 18 18 18 17 18 18 18 18 18 18 18 17
19 19 19 19 19 19 18 18 18 18 18 18 18 18 18 18 18 18 18 18 18 18 18 18 18 18 18 18 18 18 18 18 18 18 18 18 18 18 18 18 18 17 17
20 19 20 19 19 19 19 19 18 18 18 18 18 18 18 18 18 18 18 18 18 18 18 18 18 18 18 18 18 18 18 18 18 18 18 18 18 18 18 18 18 17 17
20 20 19 19 19 19 19 19 19 19 19 19 18 18 18 18 18 18 18 18 18 18 18 18 18 18 18 18 18 18 18 18 18 18 18 18 18 18 18 18 17 17 17
21 20 20 19 19 19 19 19 19 19 19 18 18 18 18 18 18 18 18 18 18 18 18 18 18 18 18 18 18 18 18 18 18 18 18 18 18 18 18 18 18 17 17
21 20 20 19 19 19 19 19 19 19 18 18 18 18 18 18 18 18 18 18 18 18 18 18 18 18 18 18 18 18 18 18 18 18 18 18 18 18 18 18 18 17 17
21 20 20 20 20 19 19 19 19 18 18 18 18 18 18 18 18 18 18 18 18 18 18 18 18 18 18 18 18 18 18 18 18 18 18 18 18 18 18 18 18 17 17
21 21 20 20 20 20 19 19 19 19 19 18 18 18 18 18 18 18 18 18 18 18 18 18 18 18 18 18 18 18 18 18 18 18 18 18 18 18 18 18 18 17 17
21 20 20 20 20 20 19 19 19 19 19 19 19 18 18 18 18 18 18 18 18 18 18 18 18 18 18 18 18 18 18 18 18 18 18 18 18 18 18 18 18 17 17
21 20 20 20 19 19 19 19 19 19 19 19 19 19 18 18 18 18 18 18 18 18 18 18 18 18 18 18 18 18 18 18 18 18 18 18 18 18 18 18 17 17 17
21 20 20 20 19 19 19 19 19 19 19 19 19 19 18 18 18 18 18 18 18 18 18 18 18 18 18 18 18 18 18 18 18 18 18 18 18 18 18 17 17 17 17
21 20 20 20 19 19 19 19 19 19 19 19 19 18 18 18 18 18 18 18 18 18 18 18 18 18 18 18 18 18 18 18 18 18 18 17 17 17 17 17 17 17 17
21 20 20 20 19 19 19 19 19 19 19 19 18 18 18 18 18 18 18 18 18 18 18 18 18 18 18 18 18 18 18 18 18 18 17 17 17 17 17 17 17 17 17
21 20 20 20 20 19 19 19 19 19 19 19 18 18 18 18 18 18 18 18 18 18 18 18 18 18 18 18 18 18 18 18 18 18 17 17 17 17 17 17 17 17 17
21 20 20 20 20 19 19 19 19 19 19 19 19 18 18 18 18 18 18 18 18 18 18 18 18 18 18 18 18 18 18 18 18 18 17 17 17 17 17 17 17 16 16
21 20 20 20 20 19 19 19 19 19 19 19 19 19 18 18 18 18 18 18 18 18 18 18 18 18 18 18 18 18 18 18 18 18 18 17 17 17 17 17 16 16 16
21 21 20 20 20 20 19 19 19 19 19 19 19 19 18 18 18 18 18 18 18 18 18 18 18 18 18 18 18 18 18 18 18 18 18 17 17 17 17 17 16 16 16
22 21 21 20 20 20 20 19 19 19 19 19 19 19 19 18 18 18 18 18 18 18 18 18 18 18 18 18 18 18 18 18 17 17 17 17 17 17 17 16 16 16 16
22 22 21 21 20 20 20 20 20 19 19 19 19 19 19 18 18 18 18 18 18 18 18 18 18 18 18 18 18 18 18 18 17 17 17 17 17 17 16 16 16 16 16
23 22 21 21 21 20 20 20 20 20 19 19 19 19 19 19 18 18 18 18 18 18 18 18 18 18 18 18 17 18 18 18 17 17 16 16 16 16 16 16 16 16 15
23 23 22 21 21 21 20 20 20 20 20 19 19 19 19 19 19 19 18 18 18 18 18 18 18 18 18 18 17 17 17 17 17 17 17 16 16 16 16 16 16 16 15
Wind_Speed
8 11 14 14 15 15 15 16 16 16 17 17 18 18 18 19 20 19 19 19 19 19 19 18 19 19 19 18 18 18 17 17 17 17 17 16 15 13 12 12 12 13 14
9 11 13 14 15 15 15 15 16 16 17 17 17 17 17 18 19 18 18 18 18 18 18 18 18 18 18 17 16 16 15 15 15 16 16 15 14 12 11 10 11 12 13
10 11 12 13 14 15 15 15 16 16 17 17 16 17 17 17 17 18 17 17 17 18 18 17 17 17 16 15 14 13 13 13 13 15 15 13 12 12 12 13 13 13 12
10 11 13 13 14 14 15 15 16 16 16 16 16 16 16 16 16 17 16 16 16 16 16 16 16 15 14 13 12 11 10 10 10 11 10 11 12 12 12 12 12 11 11
11 13 14 14 14 14 14 15 15 15 15 15 15 15 15 15 16 15 15 15 15 15 15 14 14 13 12 11 9 8 6 5 5 6 8 11 13 13 12 12 11 10 9
13 15 15 14 14 14 14 14 14 14 13 14 14 14 14 14 14 14 14 14 13 13 13 13 12 11 11 9 7 5 4 3 3 5 9 12 12 13 12 11 11 10 9
15 16 15 15 14 14 14 13 13 13 13 13 13 13 13 13 13 13 13 12 12 11 11 11 11 10 9 8 6 4 2 1 2 5 9 12 13 12 11 10 10 9 9
14 15 16 15 15 14 14 13 13 13 13 12 12 12 11 11 12 11 11 11 10 10 9 9 9 8 7 6 4 2 0 1 3 7 9 12 13 12 11 10 9 8 8
13 13 14 14 14 14 14 13 13 12 11 11 10 10 10 10 10 10 10 9 9 8 8 7 7 6 5 4 2 2 2 2 1 4 9 10 12 12 10 9 8 8 7
11 11 12 12 12 12 13 12 12 11 10 9 9 8 8 8 9 9 9 9 8 7 7 6 6 5 5 4 4 5 4 3 2 4 8 10 12 11 10 8 8 7 6
10 9 9 10 9 10 11 12 12 10 9 8 7 6 5 4 6 8 9 9 7 6 6 6 6 6 6 6 7 7 5 3 2 5 9 13 13 11 9 8 7 7 6
8 8 7 7 6 8 8 9 8 8 8 6 6 5 4 4 5 8 9 8 7 6 6 7 8 8 8 6 7 8 5 4 3 6 9 14 12 10 9 8 6 6 6
7 8 8 7 5 6 5 6 4 6 6 5 5 4 4 4 5 6 5 6 6 6 5 6 7 6 5 4 3 5 4 2 4 7 10 13 12 10 9 7 6 6 6
7 8 8 7 5 4 4 3 4 4 4 4 4 4 3 2 2 3 2 3 4 3 2 2 2 2 1 1 2 2 2 2 4 7 10 13 11 10 8 7 6 6 6
7 8 8 6 5 4 3 1 3 3 3 4 4 4 3 2 2 2 1 0 1 2 2 0 0 0 0 0 0 1 2 3 4 6 8 12 12 10 8 7 6 6 6
7 7 7 6 6 4 2 1 2 3 3 4 4 4 3 3 2 2 1 1 1 1 2 1 0 0 0 1 1 2 1 2 3 5 8 10 10 10 8 7 7 6 6
7 7 6 6 6 4 2 1 2 2 3 4 4 4 4 3 2 2 1 1 2 1 2 1 0 0 1 1 1 1 1 2 2 3 5 7 8 9 9 8 7 7 6
8 7 5 5 6 4 3 1 1 2 3 3 4 4 3 2 1 1 1 1 1 0 1 0 0 1 1 1 1 1 2 2 3 3 3 5 6 7 9 8 7 7 6
8 7 5 5 6 4 3 2 1 2 2 2 3 3 2 0 1 1 1 1 1 1 1 1 2 1 1 1 1 2 2 2 2 3 3 3 4 5 7 8 8 7 6
9 7 5 5 5 4 3 2 1 2 2 2 3 3 2 1 1 1 1 1 1 1 2 2 2 1 1 1 2 0 1 2 2 2 2 2 3 3 5 6 7 6 7
9 8 7 5 5 3 2 2 2 2 2 2 2 4 3 1 1 1 1 1 1 1 2 2 2 2 1 1 1 1 0 1 2 2 1 2 2 3 3 5 5 4 5
10 9 7 6 6 5 3 2 2 2 2 2 2 4 3 2 0 0 1 1 1 1 1 2 1 2 2 1 1 0 0 0 1 1 1 2 2 2 2 3 4 3 3
11 10 8 7 6 5 4 3 2 2 1 2 3 3 2 2 1 1 2 1 2 1 1 1 1 2 2 2 1 0 0 0 1 1 1 2 2 1 1 3 3 3 4
12 11 8 8 7 5 4 3 3 3 2 3 2 3 3 2 2 1 1 0 1 1 1 2 1 2 2 2 1 1 1 1 1 0 1 1 1 1 1 1 3 4 4
13 12 10 9 7 6 5 4 3 2 2 2 2 3 3 3 2 2 2 1 1 1 1 2 1 1 2 2 2 2 1 1 2 2 1 0 1 1 1 2 3 4 6
12 11 12 10 8 7 6 5 4 3 2 1 1 2 2 3 2 2 2 1 1 0 1 1 1 1 1 2 3 2 2 1 1 1 1 1 0 1 2 2 3 3 4
Wind_Direction
67 68 70 66 66 70 72 73 75 79 80 78 80 85 90 93 95 97 100 100 99 98 97 97 97 97 98 100 102 105 108 112 114 114 114 113 111 108 109 112 113 109 112
84 79 75 72 70 72 74 75 76 80 82 81 81 87 90 93 96 97 98 100 100 100 99 99 99 98 99 102 106 109 113 117 121 122 119 114 112 109 108 107 106 111 113
88 90 85 80 78 75 76 77 78 81 82 82 83 86 89 94 97 98 98 99 101 101 101 100 100 100 101 104 108 114 120 125 130 133 131 121 114 109 106 106 111 117 118
93 90 91 90 85 81 80 81 82 83 84 85 86 87 88 94 98 98 98 100 100 100 101 102 101 102 103 106 110 116 124 132 142 152 143 127 120 115 114 115 118 121 123
98 96 98 97 91 88 84 81 84 85 86 87 89 90 90 92 96 97 98 99 100 100 101 102 104 104 106 111 115 119 130 146 166 160 117 117 114 124 124 123 125 126 127
102 101 104 102 97 93 89 85 85 86 87 90 91 92 92 93 94 98 100 100 101 101 101 103 104 107 110 114 117 123 138 177 201 138 128 119 119 129 130 131 132 132 133
104 106 107 110 107 102 97 92 88 87 89 92 93 94 95 96 97 99 101 104 104 105 105 107 109 110 112 114 119 128 151 218 192 122 111 110 121 132 133 136 137 138 140
105 106 113 115 113 109 105 99 93 91 94 91 92 94 97 99 100 102 104 106 108 108 110 113 115 116 117 122 133 148 113 297 122 119 109 113 127 136 139 142 143 145 148
103 112 119 120 117 113 109 106 101 96 95 95 97 101 105 108 110 112 113 113 114 116 120 123 127 128 135 147 170 206 246 286 333 123 119 122 133 137 140 145 147 149 154
103 107 117 121 125 126 122 119 115 110 109 108 108 111 116 121 126 128 125 123 124 128 133 140 146 154 169 186 210 229 240 271 212 128 115 129 139 142 144 147 153 156 161
100 106 110 116 129 127 127 130 133 130 132 133 133 137 144 145 130 134 118 129 136 143 152 163 172 181 192 211 222 233 243 241 163 119 117 134 141 142 145 150 156 164 173
108 107 104 104 114 116 115 130 138 133 141 140 121 139 146 102 108 112 127 142 152 165 178 195 200 201 206 208 210 220 227 214 139 111 120 137 141 144 147 153 159 170 181
115 111 108 97 89 99 114 129 132 123 137 131 122 124 117 114 118 115 142 155 174 186 195 189 203 209 206 199 184 192 208 172 124 116 133 145 146 148 150 155 165 178 187
112 108 103 100 81 69 81 112 136 133 137 126 126 112 107 92 87 113 154 168 178 166 179 173 147 184 198 191 187 187 158 114 119 119 137 148 152 156 157 160 170 179 184
118 111 104 104 95 82 62 30 98 102 117 120 107 89 78 75 58 65 59 56 105 132 155 173 31 125 170 23 346 66 77 96 110 127 138 150 153 158 161 166 174 184 192
129 116 114 116 109 102 102 49 78 95 105 100 99 87 70 74 53 50 53 14 57 79 77 103 224 244 268 89 25 59 42 83 114 127 140 155 158 162 165 172 177 184 194
135 123 129 128 120 122 120 97 104 107 109 103 98 85 57 61 46 45 23 17 33 67 116 138 320 244 250 203 172 161 110 97 113 120 139 156 165 173 175 176 180 188 197
133 132 146 136 130 131 123 74 74 90 97 98 106 100 73 43 28 21 14 22 349 16 93 147 124 340 360 335 267 221 157 156 150 145 156 163 167 173 178 180 182 191 193
138 141 147 124 134 142 144 149 126 99 96 102 107 111 120 143 56 41 34 13 320 8 355 358 60 13 347 341 270 214 178 171 155 162 156 150 162 162 163 176 185 187 188
145 145 150 142 140 147 154 156 160 127 126 127 117 116 126 128 74 14 122 341 339 17 15 17 12 338 281 287 301 8 153 167 158 141 154 132 133 147 154 155 164 186 191
150 153 156 155 148 158 171 168 164 149 171 144 140 131 129 113 92 67 17 327 346 27 8 11 6 333 315 298 311 337 216 166 154 151 133 107 99 101 112 124 138 156 164
159 162 160 160 162 175 168 172 178 167 177 150 127 129 138 128 47 177 54 329 13 16 12 4 352 328 314 309 290 343 336 55 29 105 123 143 120 102 96 97 110 121 124
166 166 171 168 167 177 172 179 182 165 171 146 140 142 141 154 173 24 78 351 348 344 3 329 321 302 302 304 316 283 282 280 51 49 57 81 88 105 101 96 91 99 117
169 169 163 160 163 166 173 189 190 183 183 177 162 148 150 166 180 149 128 44 344 3 5 295 22 311 303 310 315 271 231 163 201 79 9 48 78 85 96 84 86 84 93
172 168 163 160 163 168 181 191 205 199 196 165 147 154 163 175 191 166 152 146 305 329 333 344 359 335 328 321 308 306 310 283 240 208 225 312 16 42 86 87 88 81 80
173 170 165 161 166 172 182 187 200 213 207 169 170 174 189 174 172 170 158 153 189 268 292 310 306 308 319 315 309 311 301 287 265 233 220 199 104 23 38 61 91 99 94
Height
1508 1505 1504 1503 1502 1501 1501 1500 1500 1500 1500 1500 1501 1502 1503 1504 1505 1507 1509 1510 1512 1514 1516 1517 1519 1521 1523 1525 1527 1529 1531 1533 1535 1537 1539 1540 1542 1543 1545 1546 1547 1548 1549
1509 1507 1506 1505 1504 1503 1503 1503 1503 1503 1503 1504 1504 1505 1506 1508 1509 1511 1512 1514 1515 1517 1519 1520 1522 1524 1526 1527 1529 1531 1533 1535 1537 1539 1540 1542 1544 1545 1546 1547 1549 1550 1551
1510 1509 1508 1507 1507 1506 1506 1506 1506 1507 1507 1507 1508 1509 1510 1511 1512 1514 1515 1517 1519 1520 1522 1523 1525 1527 1528 1530 1532 1533 1535 1537 1539 1541 1542 1544 1545 1546 1547 1548 1550 1551 1552
1511 1510 1510 1510 1509 1509 1509 1509 1510 1510 1510 1511 1511 1512 1513 1515 1516 1517 1519 1520 1522 1523 1525 1526 1528 1529 1531 1532 1534 1536 1538 1539 1541 1543 1544 1545 1547 1548 1549 1550 1551 1552 1553
1512 1511 1511 1512 1512 1512 1512 1512 1513 1513 1514 1514 1515 1516 1517 1518 1519 1520 1522 1523 1525 1526 1527 1529 1530 1532 1533 1535 1536 1538 1539 1541 1543 1544 1546 1547 1548 1549 1550 1551 1552 1553 1553
1513 1513 1513 1514 1515 1515 1515 1516 1516 1516 1517 1518 1518 1519 1520 1521 1522 1523 1525 1526 1527 1529 1530 1531 1533 1534 1535 1537 1538 1539 1540 1542 1544 1545 1547 1548 1548 1549 1550 1551 1552 1553 1554
1516 1516 1516 1517 1518 1518 1519 1519 1519 1520 1520 1521 1522 1523 1523 1524 1525 1526 1528 1529 1530 1531 1533 1534 1535 1536 1537 1539 1540 1541 1542 1544 1545 1547 1548 1549 1549 1550 1551 1552 1553 1554 1555
1519 1519 1519 1520 1521 1521 1522 1522 1522 1522 1523 1524 1525 1526 1527 1527 1528 1529 1531 1532 1533 1534 1535 1536 1537 1538 1539 1540 1542 1543 1544 1545 1547 1548 1548 1549 1550 1551 1551 1552 1553 1554 1555
1522 1522 1522 1523 1524 1524 1525 1525 1526 1526 1527 1527 1528 1529 1530 1531 1531 1532 1533 1534 1535 1536 1537 1538 1539 1540 1541 1542 1543 1544 1545 1546 1547 1548 1549 1550 1550 1551 1552 1553 1553 1554 1555
1525 1525 1526 1526 1527 1527 1528 1529 1529 1530 1530 1531 1531 1532 1533 1533 1534 1535 1535 1536 1537 1537 1538 1539 1540 1541 1542 1543 1544 1545 1546 1547 1548 1549 1549 1550 1551 1551 1552 1552 1553 1554 1554
1528 1528 1529 1530 1530 1531 1531 1532 1532 1533 1533 1534 1534 1535 1535 1536 1537 1537 1538 1538 1539 1539 1540 1541 1541 1542 1543 1544 1545 1546 1547 1547 1548 1549 1549 1550 1551 1551 1552 1552 1553 1553 1554
1530 1531 1532 1532 1533 1534 1535 1535 1535 1536 1536 1537 1537 1538 1538 1539 1539 1540 1540 1540 1540 1541 1541 1542 1543 1544 1544 1545 1546 1547 1547 1547 1548 1549 1549 1550 1551 1551 1551 1552 1552 1552 1553
1531 1532 1533 1534 1535 1536 1537 1537 1538 1538 1539 1539 1539 1540 1540 1540 1541 1541 1541 1541 1541 1542 1542 1543 1544 1544 1545 1546 1546 1547 1547 1548 1548 1548 1549 1549 1550 1551 1551 1551 1551 1552 1552
1533 1534 1535 1535 1536 1537 1538 1539 1540 1540 1540 1541 1541 1541 1542 1542 1542 1542 1542 1542 1543 1543 1543 1544 1544 1545 1546 1546 1547 1547 1547 1548 1548 1548 1548 1549 1549 1550 1550 1550 1550 1551 1551
1534 1535 1536 1536 1537 1538 1539 1540 1541 1542 1542 1542 1542 1543 1543 1543 1543 1543 1543 1543 1543 1543 1544 1544 1545 1545 1546 1546 1546 1547 1547 1547 1548 1548 1548 1548 1549 1549 1549 1549 1549 1549 1549
1535 1536 1537 1538 1538 1539 1540 1541 1542 1543 1543 1543 1544 1544 1544 1544 1543 1543 1543 1543 1544 1544 1544 1544 1545 1545 1545 1545 1546 1546 1546 1546 1547 1547 1547 1548 1548 1548 1548 1548 1548 1548 1548
1535 1536 1537 1538 1539 1540 1541 1542 1543 1544 1544 1544 1544 1544 1544 1544 1544 1544 1544 1544 1544 1544 1544 1544 1545 1544 1545 1545 1545 1545 1545 1545 1546 1546 1547 1547 1547 1547 1547 1547 1547 1547 1547
1535 1536 1538 1539 1539 1540 1541 1542 1543 1544 1544 1545 1544 1544 1544 1544 1544 1544 1544 1544 1544 1544 1544 1544 1544 1544 1544 1544 1544 1544 1544 1545 1545 1545 1545 1545 1546 1546 1546 1546 1546 1546 1546
1535 1536 1538 1539 1540 1541 1541 1542 1543 1544 1544 1545 1545 1544 1544 1544 1544 1544 1544 1544 1544 1544 1544 1544 1544 1544 1543 1543 1543 1543 1543 1544 1544 1544 1544 1545 1545 1545 1544 1544 1544 1544 1544
1535 1536 1537 1539 1540 1541 1542 1543 1543 1544 1544 1545 1545 1545 1544 1544 1544 1544 1544 1544 1544 1544 1544 1544 1544 1543 1543 1543 1543 1543 1543 1543 1543 1543 1543 1544 1544 1544 1543 1543 1543 1543 1543
1534 1535 1537 1538 1539 1540 1541 1542 1543 1544 1544 1544 1545 1544 1544 1545 1544 1544 1544 1544 1544 1544 1544 1544 1543 1543 1543 1543 1543 1542 1542 1543 1542 1542 1543 1543 1543 1543 1542 1542 1542 1541 1541
1533 1534 1536 1537 1538 1539 1540 1541 1543 1544 1544 1544 1545 1545 1544 1544 1544 1545 1544 1544 1544 1543 1543 1543 1543 1542 1542 1542 1542 1542 1542 1543 1542 1542 1542 1542 1542 1541 1541 1541 1541 1540 1540
1531 1533 1534 1536 1537 1538 1540 1541 1543 1543 1544 1544 1544 1544 1544 1544 1544 1544 1543 1544 1543 1543 1543 1543 1542 1542 1542 1542 1542 1543 1542 1542 1541 1542 1541 1541 1541 1541 1540 1540 1540 1539 1538
1529 1531 1533 1534 1536 1537 1539 1540 1541 1542 1543 1543 1544 1544 1544 1544 1544 1544 1543 1543 1543 1543 1542 1542 1542 1542 1541 1541 1541 1541 1542 1541 1541 1541 1542 1541 1541 1540 1540 1539 1538 1538 1537
1527 1529 1531 1532 1534 1536 1537 1538 1539 1541 1542 1543 1543 1543 1543 1543 1543 1543 1543 1543 1542 1542 1542 1541 1541 1541 1541 1540 1540 1540 1540 1540 1540 1540 1540 1541 1540 1540 1539 1538 1537 1537 1536
1525 1528 1529 1530 1532 1534 1536 1537 1538 1539 1541 1541 1542 1542 1542 1543 1542 1542 1542 1542 1542 1541 1541 1541 1540 1540 1540 1539 1539 1539 1539 1539 1538 1538 1538 1539 1539 1538 1538 1537 1536 1536 1535